CAPE
479 560 984 1228 1108 1079 1110 1199 1357 1669 1847 1936 1870 1957 2004 1979 1969 1902 1991 1987 2126 2096 1731 1761 2062 1936 1385 1282 1439 1710 1661 1623 1684 1753 1578 1574 1605 1571 1415 1684 1473 1045 1816
614 632 941 1217 1203 1298 1367 1363 1443 1656 1920 1970 1939 1897 1894 1954 1886 1873 1921 1967 2021 1759 1431 1527 1831 1846 1745 1525 1575 1623 1567 1488 1447 1565 1622 1395 1765 1673 1456 1884 1773 1454 1643
572 687 873 1175 1414 1522 1665 1730 1705 1685 1882 1942 1917 1932 2011 1937 1530 1468 1570 1784 1778 1612 1703 1932 1961 2002 1812 1540 1416 1248 1082 1124 1179 1318 1481 781 984 1491 1537 1926 1794 1953 1862
809 675 799 966 1237 1411 1571 1793 1834 1823 1943 1947 1920 1987 1980 1742 1523 1309 1241 1475 1443 1682 1680 1976 1881 1737 1507 1131 802 595 531 619 659 735 346 796 1164 1400 1571 1570 1715 1592 1503
778 631 598 771 978 1244 1405 1601 1720 1831 1963 2129 2161 2059 1864 1703 1644 1390 1179 1513 1679 1584 1605 1802 1569 1041 862 733 652 635 645 707 715 554 496 708 872 1505 1479 1450 1248 1427 1271
475 446 389 557 748 937 1177 1381 1475 1559 1697 1830 1902 1860 1650 1540 1347 1107 1766 1386 1210 1191 1488 1613 1316 926 651 611 575 571 683 810 746 356 777 1097 1075 1527 1402 1500 1234 1336 1235
251 242 240 536 790 868 864 804 1055 1316 1535 1640 1680 1625 1528 1448 1444 1362 1257 1089 1036 763 705 792 766 608 471 520 608 609 635 577 403 487 614 1018 1155 1597 1490 1274 1386 1273 1253
6 2 70 580 766 814 873 863 857 998 1110 1221 1264 1218 1100 1121 1123 1062 1044 992 941 846 748 680 621 557 466 375 334 307 300 322 177 547 698 805 1046 1086 1171 1343 1467 1365 1283
0 0 44 129 374 560 547 637 654 680 667 712 737 743 824 920 957 852 837 724 598 513 433 325 196 113 78 71 81 93 133 192 52 287 407 367 845 835 873 926 1144 1349 1153
2 29 226 205 380 382 333 435 521 567 471 426 390 362 490 556 729 762 587 408 262 195 113 44 0 0 0 0 0 0 0 0 17 135 103 164 566 549 557 598 705 1095 1134
59 501 474 521 815 915 433 362 444 554 507 402 384 265 467 691 573 690 165 182 70 10 0 0 0 0 0 0 0 0 0 0 0 0 12 96 136 187 263 387 436 599 911
360 391 836 861 1020 614 46 266 652 627 619 654 708 640 823 591 548 120 237 125 115 100 29 10 0 0 0 0 0 0 0 0 0 0 0 0 0 0 0 42 336 394 615
393 495 576 1338 1160 844 597 343 581 641 850 1087 834 760 892 657 717 641 468 267 186 211 112 93 0 2 5 0 0 0 0 0 0 0 0 0 0 0 0 0 9 293 340
308 402 814 1101 1168 727 244 356 420 301 878 598 1097 870 961 673 685 339 308 99 131 115 159 41 15 38 12 10 1 0 0 0 0 0 0 0 0 0 0 0 0 45 205
393 273 769 1207 1349 843 205 635 678 549 902 718 624 819 611 353 564 336 148 63 9 0 0 1 0 0 0 6 8 0 0 0 0 0 0 0 0 0 0 0 0 0 0
154 405 1066 1490 1800 452 297 420 474 778 712 715 441 331 192 352 350 165 90 27 2 0 0 0 0 0 0 0 0 0 0 0 0 0 0 0 0 0 0 0 0 0 0
191 471 955 1537 1786 823 411 379 220 219 43 100 89 56 52 65 128 99 71 53 19 44 40 10 0 0 0 0 0 0 0 0 0 0 0 0 0 0 0 0 0 0 0
194 379 811 874 1649 1428 921 357 164 88 84 30 6 15 4 10 60 71 82 90 100 90 50 47 46 20 11 11 1 0 0 0 0 0 0 0 0 0 0 0 0 0 0
550 584 696 978 1310 1440 1025 311 225 78 48 66 54 33 46 6 59 32 30 50 95 55 50 60 36 52 47 43 20 5 0 7 1 0 0 0 0 0 0 0 0 0 0
294 459 582 778 1295 1153 595 231 97 60 56 71 31 2 0 0 8 9 0 13 73 31 25 41 75 95 100 99 62 46 21 22 17 13 0 0 0 0 0 0 0 0 0
127 185 255 469 425 369 198 76 36 7 3 0 0 5 3 16 0 0 0 0 0 0 0 0 0 0 0 73 111 35 0 0 45 43 5 4 0 0 0 0 0 0 0
0 0 0 53 72 14 0 0 0 0 0 4 16 0 7 5 0 0 0 0 0 0 0 0 0 0 0 7 71 63 9 0 0 11 58 21 5 8 3 0 0 0 0
0 0 0 0 0 0 0 0 0 0 5 2 5 3 0 0 0 0 0 0 0 0 0 0 0 0 1 0 9 84 44 14 14 0 17 68 54 28 35 2 3 4 0
0 0 0 0 0 0 0 0 0 0 0 0 0 0 0 0 0 0 0 0 0 0 0 0 0 3 7 0 0 5 7 19 15 2 3 26 115 93 73 36 17 0 0
0 0 0 0 0 0 0 0 0 0 0 0 0 0 0 0 0 0 0 0 0 0 0 8 1 0 3 16 15 4 2 0 18 39 7 0 0 49 38 28 34 32 5
0 0 0 0 0 1 0 0 0 0 0 0 0 0 0 0 0 0 0 0 0 0 0 0 4 3 5 1 8 1 0 0 0 0 0 0 0 0 49 71 65 10 10
CIN
-46 -65 -37 -8 -6 -14 -18 -27 -34 -12 -3 -2 -3 -3 -1 -1 -2 -4 -4 -5 -2 -0 -1 -1 -0 -0 -36 -55 -41 -33 -49 -61 -55 -52 -47 -30 -30 -41 -53 -24 -34 -11 -2
-46 -72 -47 -16 -8 -14 -16 -26 -23 -8 -2 -1 -3 -4 -4 -3 -5 -17 -10 -7 -4 -13 -33 -24 -4 -8 -25 -45 -50 -50 -44 -59 -76 -71 -57 -50 -15 -19 -38 -17 -10 -13 -8
-54 -62 -45 -19 -8 -0 -3 -5 -6 -9 -3 -3 -4 -4 -4 -10 -41 -37 -26 -16 -14 -26 -16 -3 -7 -7 -20 -47 -67 -82 -96 -95 -91 -82 -83 -88 -20 -12 -27 -27 -9 -1 -2
-23 -94 -81 -71 -27 -9 -2 -0 -0 -0 -0 -4 -8 -6 -6 -17 -28 -34 -38 -28 -30 -13 -9 -0 -8 -13 -35 -77 -120 -112 -147 -159 -155 -153 -20 -34 -15 -31 -19 -28 -14 -5 -6
-67 -122 -154 -125 -76 -28 -10 -1 -0 -0 -0 -0 -0 -0 -7 -11 -13 -28 -50 -23 -14 -20 -6 -0 -20 -79 -104 -117 -134 -160 -145 -131 -137 -52 -12 -38 -21 -25 -25 -27 -16 -6 -10
-111 -193 -247 -213 -146 -96 -48 -33 -21 -16 -4 -0 -0 -0 -7 -15 -28 -20 -3 -23 -34 -32 -5 -0 -20 -56 -95 -123 -149 -140 -111 -97 -121 -60 -11 -91 -57 -45 -30 -23 -26 -17 -17
-195 -267 -310 -235 -148 -125 -117 -129 -70 -27 -3 -0 -0 -3 -9 -14 -11 -13 -14 -24 -23 -45 -48 -41 -55 -83 -115 -104 -82 -75 -83 -119 -175 -93 -15 -40 -108 -56 -34 -30 -20 -18 -27
-119 -189 -332 -208 -143 -122 -98 -88 -74 -34 -23 -20 -20 -23 -32 -29 -24 -22 -23 -26 -28 -31 -37 -49 -52 -60 -87 -115 -131 -149 -171 -179 -220 -39 -29 -29 -104 -75 -52 -29 -10 -14 -20
-0 -0 -298 -310 -262 -191 -192 -142 -136 -120 -122 -101 -76 -74 -61 -50 -45 -44 -37 -38 -50 -59 -69 -87 -153 -218 -218 -221 -254 -240 -225 -208 -304 -20 -33 -53 -104 -82 -61 -43 -16 -8 -22
-219 -171 -147 -166 -98 -96 -252 -209 -178 -153 -160 -153 -160 -150 -107 -88 -66 -46 -60 -74 -94 -115 -163 -210 -0 -0 -0 -0 -0 -0 -0 -0 -160 -31 -88 -64 -89 -81 -63 -50 -40 -20 -26
-102 -21 -26 -39 -11 -38 -89 -209 -190 -142 -142 -173 -53 -178 -16 -34 -31 -46 -90 -152 -218 -279 -0 -0 -0 -0 -0 -0 -0 -0 -0 -0 -0 -0 -92 -197 -122 -97 -75 -59 -49 -34 -33
-27 -21 -9 -22 -12 -13 -52 -212 -132 -90 -60 -29 -45 -48 -29 -27 -23 -54 -83 -93 -109 -47 -177 -150 -0 -0 -0 -0 -0 -0 -0 -0 -0 -0 -0 -0 -0 -0 -0 -121 -45 -43 -24
-10 -11 -36 -18 -10 -11 -40 -46 -39 -42 -49 -32 -17 -23 -17 -26 -67 -44 -13 -14 -13 -18 -120 -55 -0 -3 -19 -0 -0 -0 -0 -0 -0 -0 -0 -0 -0 -0 -0 -0 -27 -32 -28
-14 -16 -28 -26 -26 -38 -87 -47 -42 -38 -49 -32 -32 -25 -30 -25 -23 -32 -21 -37 -29 -46 -29 -21 -14 -16 -15 -21 -2 -0 -0 -0 -0 -0 -0 -0 -0 -0 -0 -0 -0 -70 -37
-10 -19 -22 -27 -16 -57 -86 -67 -65 -58 -36 -57 -24 -32 -48 -55 -28 -34 -46 -48 -21 -0 -0 -5 -0 -0 -0 -7 -15 -0 -0 -0 -0 -0 -0 -0 -0 -0 -0 -0 -0 -0 -0
-11 -20 -22 -25 -21 -69 -71 -86 -70 -60 -39 -50 -25 -86 -70 -52 -50 -59 -61 -84 -9 -0 -0 -0 -0 -0 -0 -0 -0 -0 -0 -0 -0 -0 -0 -0 -0 -0 -0 -0 -0 -0 -0
-14 -16 -22 -23 -30 -35 -47 -66 -76 -79 -138 -71 -54 -107 -96 -72 -52 -49 -63 -61 -54 -42 -43 -22 -0 -0 -0 -0 -0 -0 -0 -0 -0 -0 -0 -0 -0 -0 -0 -0 -0 -0 -0
-11 -17 -19 -9 -25 -27 -20 -52 -76 -80 -112 -100 -103 -67 -108 -111 -73 -67 -67 -55 -38 -43 -53 -35 -24 -26 -35 -45 -15 -0 -0 -0 -0 -0 -0 -0 -0 -0 -0 -0 -0 -0 -0
-22 -18 -21 -19 -28 -22 -30 -33 -68 -99 -125 -69 -46 -27 -18 -78 -96 -121 -126 -86 -44 -45 -40 -20 -23 -19 -15 -20 -22 -33 -0 -7 -1 -0 -0 -0 -0 -0 -0 -0 -0 -0 -0
-136 -74 -57 -36 -35 -25 -11 -47 -87 -91 -93 -53 -53 -15 -0 -0 -128 -129 -26 -89 -59 -59 -58 -41 -17 -15 -7 -6 -8 -9 -19 -17 -11 -7 -0 -0 -0 -0 -0 -0 -0 -0 -0
-155 -97 -115 -37 -50 -39 -77 -104 -59 -60 -72 -0 -65 -112 -125 -84 -0 -0 -0 -0 -0 -0 -0 -0 -0 -0 -0 -5 -2 -3 -0 -0 -7 -1 -0 -2 -0 -0 -0 -0 -0 -0 -0
-0 -0 -0 -77 -79 -87 -61 -0 -0 -0 -16 -124 -87 -0 -76 -47 -0 -0 -0 -0 -0 -0 -0 -0 -0 -0 -0 -6 -3 -2 -2 -0 -0 -20 -9 -3 -0 -2 -0 -0 -0 -0 -0
-0 -0 -0 -0 -0 -0 -0 -0 -0 -0 -33 -81 -92 -82 -0 -0 -0 -0 -0 -0 -0 -0 -0 -0 -0 -0 -2 -0 -11 -4 -6 -1 -2 -0 -1 -7 -16 -3 -0 -0 -0 -0 -0
-0 -0 -0 -0 -0 -0 -0 -0 -0 -0 -0 -0 -8 -0 -0 -0 -0 -0 -0 -0 -0 -0 -0 -0 -0 -16 -16 -0 -2 -20 -12 -6 -0 -1 -1 -10 -78 -42 -7 -3 -18 -0 -0
-0 -0 -0 -0 -0 -0 -0 -0 -0 -0 -0 -0 -0 -0 -0 -0 -0 -0 -0 -0 -0 -0 -0 -6 -1 -1 -1 -0 -0 -3 -4 -0 -2 -0 -5 -0 -2 -25 -33 -9 -2 -10 -1
-0 -0 -0 -0 -0 -3 -0 -0 -0 -0 -0 -0 -3 -0 -0 -0 -0 -0 -0 -0 -0 -0 -0 -0 -0 -5 -0 -0 -1 -0 -0 -0 -0 -0 -0 -0 -0 -1 -5 -0 -0 -25 -26
Wind_Speed
37 36 34 34 34 34 32 29 27 25 22 22 22 22 23 23 22 23 23 23 23 23 20 19 17 18 18 20 19 26 29 29 30 30 30 34 37 37 39 37 28 34 33
37 36 34 34 31 27 26 27 24 20 21 21 21 22 22 24 26 29 28 27 25 21 19 16 17 15 18 18 16 22 22 26 29 29 27 24 32 36 38 36 37 38 35
44 38 36 30 27 23 21 20 17 18 19 19 19 20 21 21 23 23 22 21 20 20 19 19 21 20 20 20 17 16 18 21 24 23 21 23 32 36 43 39 42 38 35
37 34 27 23 18 16 13 15 16 16 16 18 19 20 21 20 18 15 13 10 8 10 13 14 15 18 20 20 19 18 18 18 19 22 18 25 30 32 36 38 38 36 36
28 25 21 18 19 17 14 13 13 12 10 10 10 13 14 13 10 9 10 11 9 7 9 13 14 15 16 15 15 16 15 14 15 13 14 29 28 34 39 35 30 34 34
24 21 15 17 15 13 11 9 7 6 5 8 8 9 10 8 8 8 8 8 8 9 9 9 9 10 10 11 13 13 12 11 11 10 16 27 26 33 31 29 32 32 32
17 12 10 10 7 6 4 5 6 7 7 9 9 11 10 10 10 12 11 12 13 14 13 14 13 12 11 10 10 8 6 6 7 6 6 21 22 29 27 24 23 26 26
nan nan nan 3 4 5 6 7 8 10 11 12 13 13 13 13 13 14 15 15 15 16 16 18 17 17 16 15 13 12 10 9 9 9 19 21 27 25 22 20 18 18 20
nan nan nan 7 9 10 13 13 15 15 16 17 17 17 19 20 21 20 20 19 19 19 20 20 20 19 nan nan nan nan 13 11 nan 12 19 22 27 29 26 21 17 16 16
nan nan 12 14 16 16 17 20 20 20 22 24 23 22 23 22 26 28 27 26 25 25 26 nan nan nan nan nan nan nan nan nan nan 18 26 25 29 30 27 24 20 20 20
nan 7 11 15 13 19 24 23 24 26 27 28 27 26 27 23 28 31 33 34 nan nan nan nan nan nan nan nan nan nan nan nan nan nan nan nan 34 31 27 24 22 22 22
13 13 13 16 17 17 nan 29 29 29 27 27 28 29 30 29 30 26 32 34 33 32 nan nan nan nan nan nan nan nan nan nan nan nan nan nan nan nan nan nan 23 23 25
15 14 20 19 19 15 23 21 26 27 29 28 30 30 27 29 32 32 33 32 31 30 31 nan nan nan nan nan nan nan nan nan nan nan nan nan nan nan nan nan nan 26 26
21 20 23 22 21 19 18 25 27 29 32 31 34 37 34 31 33 34 34 nan 33 38 33 nan nan nan nan nan nan nan nan nan nan nan nan nan nan nan nan nan nan nan 31
22 23 25 27 25 27 26 29 29 29 35 35 35 39 40 36 39 37 36 nan nan nan nan nan nan nan nan nan nan nan nan nan nan nan nan nan nan nan nan nan nan nan nan
25 27 29 29 29 30 29 33 31 34 36 38 40 42 43 40 40 38 nan nan nan nan nan nan nan nan nan nan nan nan nan nan nan nan nan nan nan nan nan nan nan nan nan
27 29 29 30 34 33 33 34 34 37 nan 38 nan nan nan nan 43 nan nan nan nan nan nan nan nan nan nan nan nan nan nan nan nan nan nan nan nan nan nan nan nan nan nan
28 29 33 36 41 39 33 39 39 nan nan nan nan nan nan nan nan nan nan nan 40 nan nan nan nan nan nan nan nan nan nan nan nan nan nan nan nan nan nan nan nan nan nan
26 29 34 41 45 43 45 41 47 nan nan nan nan nan nan nan nan nan nan nan nan nan nan nan nan nan nan nan nan nan nan nan nan nan nan nan nan nan nan nan nan nan nan
27 33 34 39 44 45 44 46 nan nan nan nan nan nan nan nan nan nan nan nan nan nan nan nan nan nan 58 nan nan nan nan nan nan nan nan nan nan nan nan nan nan nan nan
32 39 41 47 41 44 44 nan nan nan nan nan nan nan nan nan nan nan nan nan nan nan nan nan nan nan nan nan 61 nan nan nan nan nan nan nan nan nan nan nan nan nan nan
nan nan nan nan nan nan nan nan nan nan nan nan nan nan nan nan nan nan nan nan nan nan nan nan nan nan nan nan nan nan nan nan nan nan nan nan nan nan nan nan nan nan nan
nan nan nan nan nan nan nan nan nan nan nan nan nan nan nan nan nan nan nan nan nan nan nan nan nan nan nan nan nan nan nan nan nan nan nan nan nan nan nan nan nan nan nan
nan nan nan nan nan nan nan nan nan nan nan nan nan nan nan nan nan nan nan nan nan nan nan nan nan nan nan nan nan nan nan nan nan nan nan nan 64 nan nan nan nan nan nan
nan nan nan nan nan nan nan nan nan nan nan nan nan nan nan nan nan nan nan nan nan nan nan nan nan nan nan nan nan nan nan nan nan nan nan nan nan nan nan nan nan nan nan
nan nan nan nan nan nan nan nan nan nan nan nan nan nan nan nan nan nan nan nan nan nan nan nan nan nan nan nan nan nan nan nan nan nan nan nan nan nan nan nan nan nan nan
Wind_Direction
285 287 286 291 291 287 284 281 275 279 290 291 291 284 285 277 274 271 271 272 274 275 275 269 263 256 251 252 246 240 240 244 244 242 248 257 265 261 251 243 233 259 256
292 292 285 289 287 284 281 278 279 276 278 286 284 281 276 268 267 265 270 274 273 272 272 265 259 258 262 255 255 245 233 236 236 235 239 251 264 271 271 268 258 261 254
293 293 286 283 284 288 282 273 267 271 277 284 290 290 287 283 277 275 276 274 274 271 265 265 266 261 263 263 263 258 235 229 229 227 223 250 252 254 254 258 255 254 255
294 283 283 283 283 279 265 257 266 276 286 289 290 294 293 292 288 286 285 278 278 287 287 275 276 278 270 269 271 263 252 241 233 227 239 255 272 263 261 260 260 265 261
274 279 280 279 277 278 278 282 287 289 288 300 314 318 311 304 296 283 283 293 284 278 297 292 286 280 281 278 273 263 254 247 242 247 271 262 264 270 263 265 271 267 264
277 279 287 287 284 280 273 265 255 254 266 286 301 317 330 327 316 308 300 288 285 280 287 304 303 300 297 286 273 268 265 262 258 281 279 274 278 268 258 259 268 267 263
286 299 291 281 277 267 266 275 268 273 286 297 303 298 297 296 296 297 299 296 294 293 296 297 299 291 280 275 268 261 259 256 286 284 278 282 271 266 264 262 254 262 265
nan nan nan 278 278 283 273 268 284 295 297 298 298 301 303 304 303 299 297 293 291 290 292 289 287 285 282 277 270 259 248 238 247 266 276 281 276 267 260 257 262 265 269
nan nan nan 346 324 309 305 314 310 310 307 304 307 309 314 315 310 301 292 285 285 288 289 291 294 291 nan nan nan nan 265 255 nan 272 282 275 275 275 266 260 255 263 269
nan nan 328 332 339 333 332 321 320 320 320 322 321 327 326 324 321 308 306 295 293 291 292 nan nan nan nan nan nan nan nan nan nan 281 278 278 274 268 268 264 259 255 253
nan 315 336 316 318 331 325 325 326 331 329 326 326 336 325 327 320 312 307 313 nan nan nan nan nan nan nan nan nan nan nan nan nan nan nan nan 273 268 264 263 261 260 259
317 336 315 322 315 328 nan 324 331 330 326 330 330 327 323 310 309 308 314 316 318 320 nan nan nan nan nan nan nan nan nan nan nan nan nan nan nan nan nan nan 265 267 267
331 335 317 309 319 312 313 320 319 318 316 313 315 307 307 306 312 311 307 310 312 319 306 nan nan nan nan nan nan nan nan nan nan nan nan nan nan nan nan nan nan 270 271
327 319 313 315 313 310 310 314 313 317 312 315 310 313 306 307 303 300 302 nan 306 299 299 nan nan nan nan nan nan nan nan nan nan nan nan nan nan nan nan nan nan nan 269
319 315 317 314 319 316 321 313 313 313 310 304 307 306 304 305 304 303 301 nan nan nan nan nan nan nan nan nan nan nan nan nan nan nan nan nan nan nan nan nan nan nan nan
313 316 314 317 318 319 320 313 311 313 305 309 302 300 304 306 303 304 nan nan nan nan nan nan nan nan nan nan nan nan nan nan nan nan nan nan nan nan nan nan nan nan nan
314 314 316 313 310 312 314 311 305 300 nan 303 nan nan nan nan 298 nan nan nan nan nan nan nan nan nan nan nan nan nan nan nan nan nan nan nan nan nan nan nan nan nan nan
315 319 316 311 308 311 314 306 303 nan nan nan nan nan nan nan nan nan nan nan 296 nan nan nan nan nan nan nan nan nan nan nan nan nan nan nan nan nan nan nan nan nan nan
294 299 300 307 308 315 313 309 308 nan nan nan nan nan nan nan nan nan nan nan nan nan nan nan nan nan nan nan nan nan nan nan nan nan nan nan nan nan nan nan nan nan nan
286 290 293 294 297 300 299 304 nan nan nan nan nan nan nan nan nan nan nan nan nan nan nan nan nan nan 299 nan nan nan nan nan nan nan nan nan nan nan nan nan nan nan nan
284 285 284 291 297 297 296 nan nan nan nan nan nan nan nan nan nan nan nan nan nan nan nan nan nan nan nan nan 292 nan nan nan nan nan nan nan nan nan nan nan nan nan nan
nan nan nan nan nan nan nan nan nan nan nan nan nan nan nan nan nan nan nan nan nan nan nan nan nan nan nan nan nan nan nan nan nan nan nan nan nan nan nan nan nan nan nan
nan nan nan nan nan nan nan nan nan nan nan nan nan nan nan nan nan nan nan nan nan nan nan nan nan nan nan nan nan nan nan nan nan nan nan nan nan nan nan nan nan nan nan
nan nan nan nan nan nan nan nan nan nan nan nan nan nan nan nan nan nan nan nan nan nan nan nan nan nan nan nan nan nan nan nan nan nan nan nan 268 nan nan nan nan nan nan
nan nan nan nan nan nan nan nan nan nan nan nan nan nan nan nan nan nan nan nan nan nan nan nan nan nan nan nan nan nan nan nan nan nan nan nan nan nan nan nan nan nan nan
nan nan nan nan nan nan nan nan nan nan nan nan nan nan nan nan nan nan nan nan nan nan nan nan nan nan nan nan nan nan nan nan nan nan nan nan nan nan nan nan nan nan nan